Flag for Israel Weather past 2 weeks in Hadera, Israel

Now
79 °F

Passing clouds.


Feels Like: 81 °F
Forecast: 76 / 87 °F
Wind: 5 mph from Southeast

Location: Dov Airport

Current Time: Jul 28, 2014 at 8:14:53 AM

Latest Report: Jul 28, 2014 at 6:50 AM


Visibility: N/A

Pressure: 29.86 "Hg

Humidity: 74%

Dew point: 70 °F

Location of HaderaLocation

Historic Weather in Hadera — Graph

°F

Hadera temperature yesterday

Maximum temperature yesterday: 86 °F (at 9:50 AM)
Minimum temperature yesterday: 77 °F (at 5:50 AM)
Average temperature yesterday: 83 °F

Past Weeks' High & Low Weather Summary

 TemperatureHumidityPressure
High88 °F (Jul 24, 2:50 PM)89% (Jul 24, 6:50 AM)29.89 "Hg (Jul 24, 6:50 AM)
Low77 °F (Jul 15, 6:50 AM)55% (Jul 14, 1:50 PM)29.71 "Hg (Jul 15, 5:50 AM)
Average83 °F67%29.78 "Hg
* Reported Jul 13 6:50 AM — Jul 28 6:50 AM, Hadera, Weather by CustomWeather, © 2014

Note: Actual official high and low records may vary slightly from our data, if they occured in-between our weather recording intervals... More about our weather records

Advertising

Hadera weather history for previous 24 hours

 ConditionsComfort  
Time TempWeatherWind HumidityBarometerVisibility
6:50 AM
Jul 28
79 °FPassing clouds.5 mph74%29.86 "HgN/A
5:50 AM79 °FPassing clouds.2 mph74%29.86 "HgN/A
11:50 PM
Jul 27
81 °FPassing clouds.5 mph74%29.89 "HgN/A
10:50 PM81 °FPassing clouds.5 mph74%29.89 "HgN/A
9:50 PM81 °FPassing clouds.3 mph74%29.89 "HgN/A
8:50 PM82 °FPassing clouds.6 mph70%29.86 "HgN/A
7:50 PM82 °FScattered clouds.8 mph70%29.86 "HgN/A
6:50 PM84 °FPartly sunny.9 mph70%29.86 "HgN/A
5:50 PM84 °FScattered clouds.9 mph70%29.83 "HgN/A
4:50 PM86 °FPassing clouds.13 mph66%29.83 "HgN/A
3:50 PM86 °FSunny.10 mph66%29.83 "Hg10 mi
2:50 PM86 °FPassing clouds.10 mph62%29.86 "HgN/A
1:50 PM86 °FSunny.13 mph62%29.86 "Hg10 mi
12:50 PM86 °FPassing clouds.13 mph66%29.86 "HgN/A
11:50 AM86 °FPassing clouds.12 mph62%29.86 "HgN/A
10:50 AM86 °FScattered clouds.10 mph59%29.89 "HgN/A
9:50 AM86 °FScattered clouds.10 mph62%29.89 "HgN/A
8:50 AM82 °FScattered clouds.8 mph70%29.86 "HgN/A
Weather by CustomWeather, © 2014

See weather overviewHow to use our weather pages